Test XHTML 1.0 Strict Page for WU-History Testing
Datos historicos para Xert
Diario Historicos para Julio 22, 2024 unidades:  Imperiales    Metrico   Ambos
« Anterior Dia
Proximo Dia »
Diario Semanal Mensual Anual Personalizado
  Max: Min: Promedio:
Temperatura: 86 °F 64.4 °F 75 °F
Punto de rocio: 66.2 °F 44.6 °F 54 °F
Humedad: 76% 26% 49%
Viento: 26.7mph 0mph 10.2mph
Rafagas: 26.7mph - -
Viento- - SW
Presion: 30.1 in 30.1 in -
Lluvia: 0 in    
Historical Graphs
 
 
Observa nuestra WebCam, mapa de radar de tormentas para Europa y mapa del radar de nuvosidad

Weather Camera

Radar Tormentas

Radar Sat24

Radar Meteociel





Condiciones meteorologicas Actuales:

Datos tabulados para Julio 22, 2024
Hora Temperatura Punto Rocio Presion Viento Viento Rafagas Humedad Tasa lluvia (1 hora) solar Condiciones
00:00 69.8 °F 51.8 °F 30.1 in NW 5 mph 14.9 mph 53% 0 in 0.00 W/m2 unknown
00:05 69.8 °F 51.8 °F 30.1 in West 3.7 mph 16.8 mph 53% 0 in 0.00 W/m2 unknown
00:14 69.8 °F 53.6 °F 30.1 in WNW 8.7 mph 16.8 mph 54% 0 in 0.00 W/m2 unknown
00:19 69.8 °F 53.6 °F 30.1 in WNW 6.8 mph 9.9 mph 55% 0 in 0.00 W/m2 unknown
00:24 69.8 °F 53.6 °F 30.1 in WNW 6.8 mph 9.9 mph 55% 0 in 0.00 W/m2 unknown
00:29 69.8 °F 53.6 °F 30.1 in WNW 8.7 mph 9.9 mph 55% 0 in 0.00 W/m2 unknown
00:34 69.8 °F 53.6 °F 30.1 in NW 6.8 mph 14.3 mph 55% 0 in 0.00 W/m2 unknown
00:39 69.8 °F 51.8 °F 30.1 in NW 3.7 mph 13 mph 56% 0 in 0.00 W/m2 unknown
00:44 69.8 °F 51.8 °F 30.1 in NNW 8.1 mph 8.1 mph 56% 0 in 0.00 W/m2 unknown
00:48 69.8 °F 51.8 °F 30.1 in WNW 8.7 mph 9.9 mph 56% 0 in 0.00 W/m2 unknown
00:54 69.8 °F 51.8 °F 30.1 in NW 6.8 mph 14.9 mph 56% 0 in 0.00 W/m2 unknown
00:59 69.8 °F 51.8 °F 30.1 in West 9.9 mph 14.9 mph 56% 0 in 0.00 W/m2 unknown
01:04 69.8 °F 51.8 °F 30.1 in NW 9.9 mph 16.2 mph 56% 0 in 0.00 W/m2 unknown
01:09 68 °F 51.8 °F 30.1 in West 11.2 mph 16.2 mph 56% 0 in 0.00 W/m2 unknown
01:14 68 °F 51.8 °F 30.1 in WNW 9.9 mph 13 mph 56% 0 in 0.00 W/m2 unknown
01:18 68 °F 51.8 °F 30.1 in West 14.9 mph 14.9 mph 56% 0 in 0.00 W/m2 unknown
01:24 68 °F 53.6 °F 30.1 in West 6.2 mph 16.8 mph 57% 0 in 0.00 W/m2 unknown
01:29 68 °F 51.8 °F 30.1 in WNW 6.2 mph 14.9 mph 57% 0 in 0.00 W/m2 unknown
01:34 68 °F 51.8 °F 30.1 in WNW 6.8 mph 13 mph 57% 0 in 0.00 W/m2 unknown
01:39 68 °F 51.8 °F 30.1 in West 9.9 mph 13 mph 57% 0 in 0.00 W/m2 unknown
01:43 68 °F 51.8 °F 30.1 in WNW 8.7 mph 11.8 mph 56% 0 in 0.00 W/m2 unknown
01:49 68 °F 51.8 °F 30.1 in WNW 6.2 mph 11.8 mph 56% 0 in 0.00 W/m2 unknown
01:53 68 °F 51.8 °F 30.1 in NW 5 mph 11.8 mph 56% 0 in 0.00 W/m2 unknown
01:59 68 °F 51.8 °F 30.1 in WNW 6.2 mph 11.2 mph 56% 0 in 0.00 W/m2 unknown
02:03 68 °F 51.8 °F 30.1 in WNW 16.8 mph 16.8 mph 56% 0 in 0.00 W/m2 unknown
02:09 68 °F 51.8 °F 30.1 in WNW 16.2 mph 16.8 mph 56% 0 in 0.00 W/m2 unknown
02:14 68 °F 51.8 °F 30.1 in WNW 16.8 mph 16.8 mph 55% 0 in 0.00 W/m2 unknown
02:19 68 °F 51.8 °F 30.1 in WNW 14.9 mph 16.8 mph 55% 0 in 0.00 W/m2 unknown
02:24 68 °F 51.8 °F 30.1 in WNW 8.1 mph 16.8 mph 56% 0 in 0.00 W/m2 unknown
02:29 68 °F 51.8 °F 30.1 in West 3.7 mph 13 mph 55% 0 in 0.00 W/m2 unknown
02:34 68 °F 51.8 °F 30.1 in West 8.1 mph 8.1 mph 55% 0 in 0.00 W/m2 unknown
02:38 68 °F 51.8 °F 30.1 in West 14.3 mph 14.3 mph 55% 0 in 0.00 W/m2 unknown
02:44 68 °F 51.8 °F 30.1 in NW 11.2 mph 14.3 mph 55% 0 in 0.00 W/m2 unknown
02:49 68 °F 51.8 °F 30.1 in NW 19.3 mph 19.3 mph 55% 0 in 0.00 W/m2 unknown
02:54 68 °F 51.8 °F 30.1 in NW 16.8 mph 19.3 mph 55% 0 in 0.00 W/m2 unknown
02:59 68 °F 50 °F 30.1 in NNW 21.7 mph 21.7 mph 54% 0 in 0.00 W/m2 unknown
03:04 68 °F 50 °F 30.1 in NW 11.8 mph 11.8 mph 54% 0 in 0.00 W/m2 unknown
03:09 68 °F 50 °F 30.1 in NW 19.3 mph 21.7 mph 53% 0 in 0.00 W/m2 unknown
03:14 68 °F 50 °F 30.1 in NW 16.8 mph 19.9 mph 53% 0 in 0.00 W/m2 unknown
03:19 68 °F 50 °F 30.1 in NNW 9.9 mph 19.9 mph 53% 0 in 0.00 W/m2 unknown
03:24 68 °F 50 °F 30.1 in NW 11.8 mph 11.8 mph 53% 0 in 0.00 W/m2 unknown
03:29 68 °F 50 °F 30.1 in NW 9.9 mph 16.8 mph 52% 0 in 0.00 W/m2 unknown
03:34 68 °F 50 °F 30.1 in NNW 11.8 mph 14.3 mph 52% 0 in 0.00 W/m2 unknown
03:39 68 °F 50 °F 30.1 in NNW 16.2 mph 16.2 mph 52% 0 in 0.00 W/m2 unknown
03:43 68 °F 48.2 °F 30.1 in NW 11.8 mph 16.8 mph 52% 0 in 0.00 W/m2 unknown
03:49 68 °F 48.2 °F 30.1 in NNW 19.3 mph 19.3 mph 52% 0 in 0.00 W/m2 unknown
03:54 68 °F 48.2 °F 30.1 in North 18 mph 21.1 mph 51% 0 in 0.00 W/m2 unknown
03:59 68 °F 48.2 °F 30.1 in NW 16.8 mph 19.3 mph 51% 0 in 0.00 W/m2 unknown
04:04 66.2 °F 48.2 °F 30.1 in NNW 18 mph 18 mph 51% 0 in 0.00 W/m2 unknown
04:08 66.2 °F 48.2 °F 30.1 in NW 11.2 mph 18 mph 51% 0 in 0.00 W/m2 unknown
04:14 66.2 °F 48.2 °F 30.1 in NNW 13 mph 18 mph 51% 0 in 0.00 W/m2 unknown
04:19 66.2 °F 48.2 °F 30.1 in NW 13 mph 13 mph 51% 0 in 0.00 W/m2 unknown
04:24 66.2 °F 48.2 °F 30.1 in NW 16.2 mph 16.2 mph 51% 0 in 0.00 W/m2 unknown
04:29 66.2 °F 48.2 °F 30.1 in NNW 13 mph 18 mph 51% 0 in 0.00 W/m2 unknown
04:34 66.2 °F 48.2 °F 30.1 in NNW 26.7 mph 26.7 mph 51% 0 in 0.00 W/m2 unknown
04:39 66.2 °F 48.2 °F 30.1 in NNW 23 mph 26.7 mph 50% 0 in 0.00 W/m2 unknown
04:43 66.2 °F 48.2 °F 30.1 in North 13 mph 26.7 mph 50% 0 in 0.00 W/m2 unknown
04:49 66.2 °F 48.2 °F 30.1 in NNW 19.3 mph 23 mph 50% 0 in 0.00 W/m2 unknown
04:54 66.2 °F 48.2 °F 30.1 in NNW 21.7 mph 21.7 mph 50% 0 in 0.00 W/m2 unknown
04:58 66.2 °F 48.2 °F 30.1 in NNW 18 mph 21.7 mph 50% 0 in 0.00 W/m2 unknown
05:04 66.2 °F 48.2 °F 30.1 in NNW 18 mph 21.7 mph 50% 0 in 0.00 W/m2 unknown
05:09 66.2 °F 48.2 °F 30.1 in North 14.3 mph 21.7 mph 51% 0 in 0.00 W/m2 unknown
05:14 66.2 °F 48.2 °F 30.1 in NW 19.9 mph 21.7 mph 51% 0 in 0.00 W/m2 unknown
05:19 66.2 °F 48.2 °F 30.1 in NNW 21.7 mph 24.9 mph 51% 0 in 0.00 W/m2 unknown
05:24 66.2 °F 48.2 °F 30.1 in NNW 14.3 mph 24.9 mph 51% 0 in 0.00 W/m2 unknown
05:29 66.2 °F 48.2 °F 30.1 in NW 19.3 mph 21.7 mph 50% 0 in 0.00 W/m2 unknown
05:33 66.2 °F 48.2 °F 30.1 in NW 14.3 mph 19.9 mph 50% 0 in 0.00 W/m2 unknown
05:39 66.2 °F 48.2 °F 30.1 in NW 16.8 mph 16.8 mph 50% 0 in 0.00 W/m2 unknown
05:44 66.2 °F 48.2 °F 30.1 in NNW 19.3 mph 19.3 mph 50% 0 in 0.00 W/m2 unknown
05:49 66.2 °F 48.2 °F 30.1 in NNW 14.3 mph 19.3 mph 51% 0 in 0.00 W/m2 unknown
05:54 66.2 °F 48.2 °F 30.1 in NNW 13 mph 19.3 mph 51% 0 in 0.00 W/m2 unknown
05:59 66.2 °F 48.2 °F 30.1 in North 16.8 mph 16.8 mph 51% 0 in 0.00 W/m2 unknown
06:04 66.2 °F 48.2 °F 30.1 in North 16.8 mph 21.7 mph 51% 0 in 0.00 W/m2 unknown
06:05 66.2 °F 46.4 °F 30.1 in North 14.9 mph 16.8 mph 51% 0 in 0.00 W/m2 unknown
06:14 66.2 °F 46.4 °F 30.1 in NNW 16.2 mph 21.1 mph 51% 0 in 0.00 W/m2 unknown
06:19 66.2 °F 48.2 °F 30.1 in NNW 23 mph 23 mph 52% 0 in 0.00 W/m2 unknown
06:24 66.2 °F 48.2 °F 30.1 in NNW 21.1 mph 23 mph 52% 0 in 0.00 W/m2 unknown
06:29 66.2 °F 48.2 °F 30.1 in NW 19.9 mph 19.9 mph 52% 0 in 0.00 W/m2 unknown
06:34 66.2 °F 48.2 °F 30.1 in NNW 14.3 mph 23 mph 52% 0 in 0.00 W/m2 unknown
06:39 66.2 °F 48.2 °F 30.1 in NW 13 mph 23 mph 52% 0 in 0.00 W/m2 unknown
06:43 66.2 °F 46.4 °F 30.1 in North 16.8 mph 16.8 mph 51% 0 in 0.00 W/m2 unknown
06:49 66.2 °F 46.4 °F 30.1 in NW 16.8 mph 23 mph 51% 0 in 0.00 W/m2 unknown
06:54 66.2 °F 46.4 °F 30.1 in NNW 14.9 mph 23 mph 51% 0 in 0.00 W/m2 unknown
06:59 66.2 °F 46.4 °F 30.1 in WNW 19.9 mph 19.9 mph 51% 0 in 0.00 W/m2 unknown
07:04 66.2 °F 46.4 °F 30.1 in NW 21.1 mph 21.1 mph 51% 0 in 0.00 W/m2 unknown
07:09 66.2 °F 46.4 °F 30.1 in NW 21.1 mph 21.1 mph 52% 0 in 0.00 W/m2 unknown
07:14 64.4 °F 46.4 °F 30.1 in NW 16.2 mph 24.2 mph 52% 0 in 0.00 W/m2 unknown
07:19 64.4 °F 46.4 °F 30.1 in NW 24.2 mph 24.2 mph 52% 0 in 0.00 W/m2 unknown
07:24 64.4 °F 46.4 °F 30.1 in NNW 21.7 mph 24.2 mph 51% 0 in 0.00 W/m2 unknown
07:29 66.2 °F 46.4 °F 30.1 in NNW 23 mph 24.2 mph 51% 0 in 0.00 W/m2 unknown
07:34 66.2 °F 46.4 °F 30.1 in NW 11.8 mph 23 mph 51% 0 in 0.00 W/m2 unknown
07:39 66.2 °F 46.4 °F 30.1 in NNW 19.3 mph 19.3 mph 50% 0 in 0.00 W/m2 unknown
07:44 66.2 °F 46.4 °F 30.1 in NNW 21.1 mph 24.2 mph 50% 0 in 0.00 W/m2 unknown
07:48 66.2 °F 46.4 °F 30.1 in North 21.1 mph 21.7 mph 49% 0 in 0.00 W/m2 unknown
07:54 66.2 °F 46.4 °F 30.1 in NNW 16.8 mph 21.7 mph 48% 0 in 0.00 W/m2 unknown
07:59 66.2 °F 46.4 °F 30.1 in NW 14.9 mph 21.1 mph 48% 0 in 0.00 W/m2 unknown
08:04 68 °F 46.4 °F 30.1 in NW 21.1 mph 21.1 mph 46% 0 in 0.00 W/m2 unknown
08:09 68 °F 46.4 °F 30.1 in NNW 14.3 mph 21.1 mph 45% 0 in 0.00 W/m2 unknown
08:14 68 °F 46.4 °F 30.1 in NW 13 mph 18 mph 46% 0 in 0.00 W/m2 unknown
08:18 68 °F 46.4 °F 30.1 in NW 18 mph 18 mph 45% 0 in 0.00 W/m2 unknown
08:24 68 °F 46.4 °F 30.1 in NNW 14.9 mph 18 mph 45% 0 in 0.00 W/m2 unknown
08:29 68 °F 46.4 °F 30.1 in WNW 8.7 mph 16.2 mph 45% 0 in 0.00 W/m2 unknown
08:34 69.8 °F 46.4 °F 30.1 in NW 9.9 mph 11.8 mph 44% 0 in 0.00 W/m2 unknown
08:39 69.8 °F 46.4 °F 30.1 in NNW 13 mph 14.3 mph 44% 0 in 0.00 W/m2 unknown
08:43 69.8 °F 46.4 °F 30.1 in NNW 9.9 mph 14.3 mph 44% 0 in 0.00 W/m2 unknown
08:49 69.8 °F 46.4 °F 30.1 in NW 11.8 mph 13 mph 43% 0 in 0.00 W/m2 unknown
08:54 69.8 °F 46.4 °F 30.1 in NNW 11.2 mph 13 mph 43% 0 in 0.00 W/m2 unknown
08:59 69.8 °F 46.4 °F 30.1 in NNW 14.9 mph 14.9 mph 42% 0 in 0.00 W/m2 unknown
09:04 69.8 °F 46.4 °F 30.1 in NNW 14.3 mph 14.9 mph 42% 0 in 0.00 W/m2 unknown
09:09 71.6 °F 46.4 °F 30.1 in NNW 9.9 mph 16.8 mph 42% 0 in 0.00 W/m2 unknown
09:14 71.6 °F 46.4 °F 30.1 in SSW 9.9 mph 14.3 mph 41% 0 in 0.00 W/m2 unknown
09:19 71.6 °F 46.4 °F 30.1 in WNW 8.1 mph 9.9 mph 41% 0 in 0.00 W/m2 unknown
09:24 71.6 °F 46.4 °F 30.1 in WNW 11.2 mph 11.8 mph 40% 0 in 0.00 W/m2 unknown
09:29 71.6 °F 46.4 °F 30.1 in WNW 8.1 mph 11.2 mph 40% 0 in 0.00 W/m2 unknown
09:34 73.4 °F 46.4 °F 30.1 in WNW 5 mph 11.2 mph 40% 0 in 0.00 W/m2 unknown
09:39 73.4 °F 46.4 °F 30.1 in West 8.1 mph 8.1 mph 40% 0 in 0.00 W/m2 unknown
09:44 73.4 °F 46.4 °F 30.1 in WNW 8.7 mph 8.7 mph 40% 0 in 0.00 W/m2 unknown
09:49 73.4 °F 46.4 °F 30.1 in NW 6.8 mph 9.9 mph 39% 0 in 0.00 W/m2 unknown
09:54 75.2 °F 46.4 °F 30.1 in North 6.8 mph 11.2 mph 38% 0 in 0.00 W/m2 unknown
09:58 75.2 °F 46.4 °F 30.1 in North 11.8 mph 11.8 mph 38% 0 in 0.00 W/m2 unknown
10:04 75.2 °F 46.4 °F 30.1 in WNW 8.7 mph 11.8 mph 37% 0 in 0.00 W/m2 unknown
10:09 75.2 °F 46.4 °F 30.1 in NNW 3.7 mph 11.8 mph 37% 0 in 0.00 W/m2 unknown
10:14 75.2 °F 46.4 °F 30.1 in North 8.1 mph 9.9 mph 36% 0 in 0.00 W/m2 unknown
10:19 75.2 °F 46.4 °F 30.1 in WNW 6.2 mph 8.7 mph 35% 0 in 0.00 W/m2 unknown
10:24 77 °F 46.4 °F 30.1 in NW 6.8 mph 8.1 mph 34% 0 in 0.00 W/m2 unknown
10:29 77 °F 46.4 °F 30.1 in West 6.8 mph 8.1 mph 34% 0 in 0.00 W/m2 unknown
10:34 77 °F 46.4 °F 30.1 in North 6.8 mph 8.1 mph 34% 0 in 0.00 W/m2 unknown
10:39 77 °F 44.6 °F 30.1 in NNW 5 mph 6.8 mph 32% 0 in 0.00 W/m2 unknown
10:44 77 °F 44.6 °F 30.1 in ENE 3.1 mph 6.8 mph 32% 0 in 0.00 W/m2 unknown
10:49 78.8 °F 44.6 °F 30.1 in ESE 1.9 mph 3.1 mph 31% 0 in 0.00 W/m2 unknown
10:54 78.8 °F 44.6 °F 30.1 in SSW 1.9 mph 1.9 mph 31% 0 in 0.00 W/m2 unknown
10:59 78.8 °F 44.6 °F 30.1 in SSE 6.2 mph 6.2 mph 30% 0 in 0.00 W/m2 unknown
11:04 78.8 °F 44.6 °F 30.1 in South 3.7 mph 6.2 mph 30% 0 in 0.00 W/m2 unknown
11:09 78.8 °F 44.6 °F 30.1 in SSW 5 mph 6.2 mph 30% 0 in 0.00 W/m2 unknown
11:14 78.8 °F 44.6 °F 30.1 in ESE 1.2 mph 5 mph 30% 0 in 0.00 W/m2 unknown
11:18 80.6 °F 46.4 °F 30.1 in ESE 8.7 mph 8.7 mph 31% 0 in 0.00 W/m2 unknown
11:24 78.8 °F 46.4 °F 30.1 in ESE 6.2 mph 8.7 mph 31% 0 in 0.00 W/m2 unknown
11:29 80.6 °F 46.4 °F 30.1 in SE 8.7 mph 8.7 mph 31% 0 in 0.00 W/m2 unknown
11:34 80.6 °F 46.4 °F 30.1 in SE 8.1 mph 8.7 mph 30% 0 in 0.00 W/m2 unknown
11:39 80.6 °F 46.4 °F 30.1 in SE 6.8 mph 8.7 mph 30% 0 in 0.00 W/m2 unknown
11:44 80.6 °F 46.4 °F 30.1 in East 5 mph 8.1 mph 30% 0 in 0.00 W/m2 unknown
11:49 80.6 °F 44.6 °F 30.1 in East 8.1 mph 8.1 mph 29% 0 in 0.00 W/m2 unknown
11:54 80.6 °F 46.4 °F 30.1 in ESE 5 mph 8.7 mph 30% 0 in 0.00 W/m2 unknown
11:59 80.6 °F 46.4 °F 30.1 in SSW 8.1 mph 8.1 mph 29% 0 in 0.00 W/m2 unknown
12:04 82.4 °F 46.4 °F 30.1 in South 6.8 mph 8.1 mph 29% 0 in 0.00 W/m2 unknown
12:05 82.4 °F 46.4 °F 30.1 in SW 1.2 mph 8.1 mph 29% 0 in 0.00 W/m2 unknown
12:14 82.4 °F 46.4 °F 30.1 in South 11.2 mph 11.8 mph 29% 0 in 0.00 W/m2 unknown
12:19 82.4 °F 46.4 °F 30.1 in SSE 11.8 mph 13 mph 28% 0 in 0.00 W/m2 unknown
12:24 82.4 °F 46.4 °F 30.1 in South 8.7 mph 13 mph 29% 0 in 0.00 W/m2 unknown
12:29 82.4 °F 46.4 °F 30.1 in SE 11.8 mph 11.8 mph 29% 0 in 0.00 W/m2 unknown
12:34 82.4 °F 46.4 °F 30.1 in SSE 9.9 mph 11.8 mph 28% 0 in 0.00 W/m2 unknown
12:39 82.4 °F 46.4 °F 30.1 in SE 9.9 mph 11.8 mph 28% 0 in 0.00 W/m2 unknown
12:44 82.4 °F 46.4 °F 30.1 in East 6.2 mph 13 mph 28% 0 in 0.00 W/m2 unknown
12:49 82.4 °F 44.6 °F 30.1 in ENE 6.2 mph 8.1 mph 27% 0 in 0.00 W/m2 unknown
12:54 82.4 °F 44.6 °F 30.1 in NE 6.8 mph 6.8 mph 27% 0 in 0.00 W/m2 unknown
12:58 82.4 °F 44.6 °F 30.1 in NNW 3.1 mph 8.1 mph 26% 0 in 0.00 W/m2 unknown
13:04 84.2 °F 44.6 °F 30.1 in South 8.7 mph 8.7 mph 26% 0 in 0.00 W/m2 unknown
13:09 84.2 °F 44.6 °F 30.1 in SE 9.9 mph 9.9 mph 26% 0 in 0.00 W/m2 unknown
13:14 84.2 °F 53.6 °F 30.1 in ESE 11.2 mph 11.8 mph 37% 0 in 0.00 W/m2 unknown
13:19 82.4 °F 55.4 °F 30.1 in ESE 14.3 mph 14.3 mph 40% 0 in 0.00 W/m2 unknown
13:23 82.4 °F 55.4 °F 30.1 in SE 14.9 mph 14.9 mph 41% 0 in 0.00 W/m2 unknown
13:29 82.4 °F 55.4 °F 30.1 in SE 14.3 mph 14.9 mph 40% 0 in 0.00 W/m2 unknown
13:34 82.4 °F 57.2 °F 30.1 in ESE 13 mph 14.9 mph 42% 0 in 0.00 W/m2 unknown
13:39 82.4 °F 57.2 °F 30.1 in SE 8.1 mph 14.3 mph 42% 0 in 0.00 W/m2 unknown
13:44 82.4 °F 57.2 °F 30.1 in SSE 14.3 mph 14.3 mph 41% 0 in 0.00 W/m2 unknown
13:49 82.4 °F 57.2 °F 30.1 in SSE 11.2 mph 16.2 mph 42% 0 in 0.00 W/m2 unknown
13:54 82.4 °F 57.2 °F 30.1 in SSE 13 mph 16.2 mph 42% 0 in 0.00 W/m2 unknown
13:58 80.6 °F 55.4 °F 30.1 in SSE 13 mph 13 mph 42% 0 in 0.00 W/m2 unknown
14:04 80.6 °F 55.4 °F 30.1 in ESE 11.8 mph 13 mph 41% 0 in 0.00 W/m2 unknown
14:09 82.4 °F 57.2 °F 30.1 in ESE 9.9 mph 11.8 mph 42% 0 in 0.00 W/m2 unknown
14:14 82.4 °F 57.2 °F 30.1 in East 11.2 mph 13 mph 43% 0 in 0.00 W/m2 unknown
14:19 80.6 °F 57.2 °F 30.1 in ESE 13 mph 13 mph 43% 0 in 0.00 W/m2 unknown
14:24 80.6 °F 57.2 °F 30.1 in East 16.2 mph 16.2 mph 44% 0 in 0.00 W/m2 unknown
14:29 80.6 °F 57.2 °F 30.1 in East 8.7 mph 16.2 mph 44% 0 in 0.00 W/m2 unknown
14:34 80.6 °F 55.4 °F 30.1 in East 6.8 mph 16.2 mph 42% 0 in 0.00 W/m2 unknown
14:39 82.4 °F 55.4 °F 30.1 in SE 9.9 mph 9.9 mph 42% 0 in 0.00 W/m2 unknown
14:43 82.4 °F 57.2 °F 30.1 in East 14.9 mph 14.9 mph 42% 0 in 0.00 W/m2 unknown
14:49 82.4 °F 55.4 °F 30.1 in ESE 11.2 mph 14.9 mph 41% 0 in 0.00 W/m2 unknown
14:54 82.4 °F 57.2 °F 30.1 in SE 11.2 mph 14.9 mph 42% 0 in 0.00 W/m2 unknown
14:59 82.4 °F 57.2 °F 30.1 in SE 13 mph 14.3 mph 41% 0 in 0.00 W/m2 unknown
15:04 82.4 °F 57.2 °F 30.1 in South 11.8 mph 14.9 mph 41% 0 in 0.00 W/m2 unknown
15:09 82.4 °F 57.2 °F 30.1 in SSW 8.7 mph 11.8 mph 41% 0 in 0.00 W/m2 unknown
15:14 84.2 °F 57.2 °F 30.1 in SSE 6.8 mph 13 mph 40% 0 in 0.00 W/m2 unknown
15:18 84.2 °F 57.2 °F 30.1 in SE 6.8 mph 11.2 mph 40% 0 in 0.00 W/m2 unknown
15:24 84.2 °F 57.2 °F 30.1 in SE 11.8 mph 13 mph 39% 0 in 0.00 W/m2 unknown
15:29 84.2 °F 57.2 °F 30.1 in ESE 11.8 mph 13 mph 42% 0 in 0.00 W/m2 unknown
15:34 82.4 °F 57.2 °F 30.1 in ESE 11.8 mph 14.3 mph 41% 0 in 0.00 W/m2 unknown
15:39 82.4 °F 57.2 °F 30.1 in SE 11.8 mph 11.8 mph 41% 0 in 0.00 W/m2 unknown
15:43 84.2 °F 57.2 °F 30.1 in ESE 6.8 mph 13 mph 41% 0 in 0.00 W/m2 unknown
15:49 84.2 °F 57.2 °F 30.1 in East 9.9 mph 13 mph 41% 0 in 0.00 W/m2 unknown
15:54 82.4 °F 57.2 °F 30.1 in NE 8.7 mph 9.9 mph 41% 0 in 0.00 W/m2 unknown
15:59 82.4 °F 59 °F 30.1 in ENE 8.7 mph 9.9 mph 43% 0 in 0.00 W/m2 unknown
16:04 82.4 °F 59 °F 30.1 in ESE 11.8 mph 11.8 mph 43% 0 in 0.00 W/m2 unknown
16:09 84.2 °F 57.2 °F 30.1 in SE 8.7 mph 13 mph 42% 0 in 0.00 W/m2 unknown
16:14 84.2 °F 59 °F 30.1 in ESE 11.8 mph 13 mph 42% 0 in 0.00 W/m2 unknown
16:19 84.2 °F 59 °F 30.1 in ESE 8.7 mph 11.8 mph 42% 0 in 0.00 W/m2 unknown
16:24 82.4 °F 59 °F 30.1 in ESE 8.7 mph 11.2 mph 43% 0 in 0.00 W/m2 unknown
16:29 84.2 °F 59 °F 30.1 in ESE 11.2 mph 11.2 mph 43% 0 in 0.00 W/m2 unknown
16:34 84.2 °F 59 °F 30.1 in ESE 8.1 mph 11.8 mph 44% 0 in 0.00 W/m2 unknown
16:39 84.2 °F 59 °F 30.1 in South 6.8 mph 11.8 mph 43% 0 in 0.00 W/m2 unknown
16:44 84.2 °F 59 °F 30.1 in South 9.9 mph 9.9 mph 43% 0 in 0.00 W/m2 unknown
16:49 84.2 °F 59 °F 30.1 in South 16.8 mph 16.8 mph 44% 0 in 0.00 W/m2 unknown
16:54 84.2 °F 59 °F 30.1 in South 11.8 mph 16.8 mph 44% 0 in 0.00 W/m2 unknown
16:59 84.2 °F 60.8 °F 30.1 in SSE 13 mph 13 mph 44% 0 in 0.00 W/m2 unknown
17:04 84.2 °F 60.8 °F 30.1 in SSE 14.3 mph 14.3 mph 44% 0 in 0.00 W/m2 unknown
17:09 84.2 °F 60.8 °F 30.1 in SE 11.8 mph 14.3 mph 44% 0 in 0.00 W/m2 unknown
17:13 84.2 °F 60.8 °F 30.1 in SE 13 mph 13 mph 45% 0 in 0.00 W/m2 unknown
17:19 84.2 °F 60.8 °F 30.1 in SSE 11.2 mph 13 mph 45% 0 in 0.00 W/m2 unknown
17:24 84.2 °F 60.8 °F 30.1 in SE 8.1 mph 13 mph 45% 0 in 0.00 W/m2 unknown
17:29 84.2 °F 60.8 °F 30.1 in SSE 8.7 mph 14.3 mph 46% 0 in 0.00 W/m2 unknown
17:34 84.2 °F 60.8 °F 30.1 in ESE 11.2 mph 13 mph 46% 0 in 0.00 W/m2 unknown
17:39 84.2 °F 60.8 °F 30.1 in East 11.2 mph 11.2 mph 46% 0 in 0.00 W/m2 unknown
17:44 84.2 °F 60.8 °F 30.1 in ESE 11.2 mph 11.8 mph 46% 0 in 0.00 W/m2 unknown
17:48 84.2 °F 60.8 °F 30.1 in East 8.1 mph 11.8 mph 47% 0 in 0.00 W/m2 unknown
17:54 84.2 °F 60.8 °F 30.1 in ENE 6.8 mph 11.8 mph 47% 0 in 0.00 W/m2 unknown
17:59 84.2 °F 60.8 °F 30.1 in South 16.2 mph 16.2 mph 46% 0 in 0.00 W/m2 unknown
18:04 84.2 °F 60.8 °F 30.1 in SSE 11.2 mph 16.2 mph 46% 0 in 0.00 W/m2 unknown
18:05 84.2 °F 60.8 °F 30.1 in South 6.8 mph 16.2 mph 46% 0 in 0.00 W/m2 unknown
18:14 84.2 °F 60.8 °F 30.1 in SSE 9.9 mph 11.2 mph 47% 0 in 0.00 W/m2 unknown
18:19 84.2 °F 62.6 °F 30.1 in SSE 9.9 mph 9.9 mph 46% 0 in 0.00 W/m2 unknown
18:24 84.2 °F 60.8 °F 30.1 in South 5 mph 9.9 mph 45% 0 in 0.00 W/m2 unknown
18:29 84.2 °F 62.6 °F 30.1 in South 11.2 mph 11.2 mph 46% 0 in 0.00 W/m2 unknown
18:34 84.2 °F 60.8 °F 30.1 in South 9.9 mph 11.2 mph 46% 0 in 0.00 W/m2 unknown
18:39 84.2 °F 62.6 °F 30.1 in SSE 6.8 mph 11.2 mph 46% 0 in 0.00 W/m2 unknown
18:44 86 °F 62.6 °F 30.1 in SSE 8.7 mph 8.7 mph 46% 0 in 0.00 W/m2 unknown
18:49 84.2 °F 62.6 °F 30.1 in SSE 11.2 mph 11.2 mph 47% 0 in 0.00 W/m2 unknown
18:54 84.2 °F 62.6 °F 30.1 in SSE 8.1 mph 11.2 mph 48% 0 in 0.00 W/m2 unknown
18:59 84.2 °F 62.6 °F 30.1 in SSE 8.7 mph 11.2 mph 49% 0 in 0.00 W/m2 unknown
19:04 84.2 °F 64.4 °F 30.1 in SSE 11.8 mph 11.8 mph 50% 0 in 0.00 W/m2 unknown
19:09 84.2 °F 64.4 °F 30.1 in South 6.8 mph 11.8 mph 50% 0 in 0.00 W/m2 unknown
19:14 84.2 °F 64.4 °F 30.1 in South 11.2 mph 11.2 mph 52% 0 in 0.00 W/m2 unknown
19:19 84.2 °F 64.4 °F 30.1 in SE 11.2 mph 11.2 mph 52% 0 in 0.00 W/m2 unknown
19:24 82.4 °F 64.4 °F 30.1 in SSW 8.7 mph 8.7 mph 53% 0 in 0.00 W/m2 unknown
19:29 82.4 °F 64.4 °F 30.1 in South 9.9 mph 9.9 mph 53% 0 in 0.00 W/m2 unknown
19:34 82.4 °F 64.4 °F 30.1 in South 8.7 mph 11.2 mph 54% 0 in 0.00 W/m2 unknown
19:39 82.4 °F 64.4 °F 30.1 in South 9.9 mph 11.2 mph 55% 0 in 0.00 W/m2 unknown
19:44 82.4 °F 64.4 °F 30.1 in SSE 6.2 mph 9.9 mph 55% 0 in 0.00 W/m2 unknown
19:49 82.4 °F 64.4 °F 30.1 in South 8.1 mph 9.9 mph 55% 0 in 0.00 W/m2 unknown
19:54 82.4 °F 64.4 °F 30.1 in South 8.7 mph 8.7 mph 56% 0 in 0.00 W/m2 unknown
19:59 82.4 °F 66.2 °F 30.1 in SSW 8.1 mph 11.2 mph 57% 0 in 0.00 W/m2 unknown
20:04 82.4 °F 66.2 °F 30.1 in SW 6.8 mph 11.2 mph 57% 0 in 0.00 W/m2 unknown
20:09 80.6 °F 64.4 °F 30.1 in South 9.9 mph 9.9 mph 58% 0 in 0.00 W/m2 unknown
20:14 80.6 °F 64.4 °F 30.1 in South 8.1 mph 9.9 mph 58% 0 in 0.00 W/m2 unknown
20:19 80.6 °F 66.2 °F 30.1 in South 6.8 mph 9.9 mph 59% 0 in 0.00 W/m2 unknown
20:24 80.6 °F 66.2 °F 30.1 in South 8.7 mph 8.7 mph 60% 0 in 0.00 W/m2 unknown
20:29 80.6 °F 66.2 °F 30.1 in South 8.1 mph 9.9 mph 60% 0 in 0.00 W/m2 unknown
20:34 80.6 °F 66.2 °F 30.1 in South 6.8 mph 9.9 mph 61% 0 in 0.00 W/m2 unknown
20:39 80.6 °F 66.2 °F 30.1 in SSE 6.8 mph 8.7 mph 61% 0 in 0.00 W/m2 unknown
20:44 80.6 °F 66.2 °F 30.1 in SSW 3.7 mph 3.7 mph 61% 0 in 0.00 W/m2 unknown
20:49 78.8 °F 66.2 °F 30.1 in SSW 5 mph 6.8 mph 62% 0 in 0.00 W/m2 unknown
20:54 78.8 °F 66.2 °F 30.1 in SSW 3.7 mph 6.2 mph 64% 0 in 0.00 W/m2 unknown
20:59 78.8 °F 66.2 °F 30.1 in SW 1.9 mph 6.2 mph 64% 0 in 0.00 W/m2 unknown
21:04 78.8 °F 64.4 °F 30.1 in SSW 1.9 mph 3.1 mph 65% 0 in 0.00 W/m2 unknown
21:09 77 °F 64.4 °F 30.1 in SSW 1.2 mph 3.1 mph 65% 0 in 0.00 W/m2 unknown
21:14 77 °F 64.4 °F 30.1 in WSW 1.9 mph 1.9 mph 67% 0 in 0.00 W/m2 unknown
21:19 77 °F 64.4 °F 30.1 in WNW 1.2 mph 1.9 mph 67% 0 in 0.00 W/m2 unknown
21:24 77 °F 64.4 °F 30.1 in WNW 1.9 mph 1.9 mph 68% 0 in 0.00 W/m2 unknown
21:29 75.2 °F 64.4 °F 30.1 in Calm   1.9 mph 68% 0 in 0.00 W/m2 unknown
21:34 75.2 °F 64.4 °F 30.1 in NW 1.2 mph 1.2 mph 68% 0 in 0.00 W/m2 unknown
21:38 75.2 °F 64.4 °F 30.1 in WNW 1.9 mph 1.9 mph 69% 0 in 0.00 W/m2 unknown
21:44 75.2 °F 64.4 °F 30.1 in West 3.1 mph 3.1 mph 70% 0 in 0.00 W/m2 unknown
21:49 73.4 °F 64.4 °F 30.1 in West 3.1 mph 3.1 mph 70% 0 in 0.00 W/m2 unknown
21:54 73.4 °F 64.4 °F 30.1 in West 1.2 mph 3.1 mph 72% 0 in 0.00 W/m2 unknown
21:59 73.4 °F 64.4 °F 30.1 in WNW 3.1 mph 3.1 mph 71% 0 in 0.00 W/m2 unknown
22:04 73.4 °F 62.6 °F 30.1 in NW 1.2 mph 3.1 mph 72% 0 in 0.00 W/m2 unknown
22:09 73.4 °F 62.6 °F 30.1 in NW 1.2 mph 1.2 mph 72% 0 in 0.00 W/m2 unknown
22:14 73.4 °F 62.6 °F 30.1 in WNW 1.9 mph 1.9 mph 73% 0 in 0.00 W/m2 unknown
22:19 71.6 °F 62.6 °F 30.1 in WNW 1.9 mph 1.9 mph 73% 0 in 0.00 W/m2 unknown
22:24 71.6 °F 62.6 °F 30.1 in WNW 1.9 mph 1.9 mph 74% 0 in 0.00 W/m2 unknown
22:28 71.6 °F 62.6 °F 30.1 in WNW 1.9 mph 1.9 mph 74% 0 in 0.00 W/m2 unknown
22:34 71.6 °F 62.6 °F 30.1 in WNW 3.7 mph 3.7 mph 75% 0 in 0.00 W/m2 unknown
22:39 69.8 °F 62.6 °F 30.1 in WNW 3.7 mph 3.7 mph 75% 0 in 0.00 W/m2 unknown
22:43 71.6 °F 62.6 °F 30.1 in WNW 3.7 mph 3.7 mph 75% 0 in 0.00 W/m2 unknown
22:49 69.8 °F 62.6 °F 30.1 in WNW 5 mph 5 mph 75% 0 in 0.00 W/m2 unknown
22:54 69.8 °F 62.6 °F 30.1 in WNW 5 mph 5 mph 76% 0 in 0.00 W/m2 unknown
22:59 69.8 °F 62.6 °F 30.1 in WNW 3.7 mph 5 mph 76% 0 in 0.00 W/m2 unknown
23:04 69.8 °F 62.6 °F 30.1 in WNW 3.7 mph 5 mph 75% 0 in 0.00 W/m2 unknown
23:09 69.8 °F 62.6 °F 30.1 in NW 3.7 mph 3.7 mph 75% 0 in 0.00 W/m2 unknown
23:14 69.8 °F 62.6 °F 30.1 in WNW 3.7 mph 5 mph 75% 0 in 0.00 W/m2 unknown
23:19 69.8 °F 62.6 °F 30.1 in West 3.1 mph 5 mph 75% 0 in 0.00 W/m2 unknown
23:24 69.8 °F 62.6 °F 30.1 in WNW 3.7 mph 3.7 mph 75% 0 in 0.00 W/m2 unknown
23:29 71.6 °F 62.6 °F 30.1 in WNW 3.1 mph 3.7 mph 76% 0 in 0.00 W/m2 unknown
23:34 71.6 °F 62.6 °F 30.1 in WNW 3.1 mph 3.7 mph 74% 0 in 0.00 W/m2 unknown
23:39 71.6 °F 62.6 °F 30.1 in Calm   3.1 mph 74% 0 in 0.00 W/m2 unknown
23:44 69.8 °F 62.6 °F 30.1 in Calm   3.1 mph 75% 0 in 0.00 W/m2 unknown
23:49 69.8 °F 62.6 °F 30.1 in WSW 6.2 mph 6.2 mph 75% 0 in 0.00 W/m2 unknown
23:55 69.8 °F 62.6 °F 30.1 in Calm   6.2 mph 74% 0 in 0.00 W/m2 unknown
Datos historicos para Xert